This is the latest recevied weather packets stored in our database for station/object AI5BL. If no packets are shown the sender has not sent any weather packets the latest 10 day(s).
| Time | Temp. | Humidity | Pressure | Rain* | Wind** | Luminosity | Snow |
|---|---|---|---|---|---|---|---|
| 1788298490 | 34.44° C | 54% | 1017.8 hPa | 0 mm | - | 65 W/m² | - |
| 1788298189 | 35° C | 56% | 1017.6 hPa | 0 mm | - | 77 W/m² | - |
| 1788297885 | 34.44° C | 50% | 1018 hPa | 0 mm | - | 84 W/m² | - |
| 1788297581 | 35° C | 51% | 1018 hPa | 0 mm | - | 76 W/m² | - |
| 1788297277 | 35° C | 49% | 1018 hPa | 0 mm | - | 58 W/m² | - |
| 1788296972 | 35° C | 48% | 1018.1 hPa | 0 mm | - | 88 W/m² | - |
| 1788296668 | 35° C | 51% | 1018.1 hPa | 0 mm | - | 111 W/m² | - |
| 1788296365 | 35° C | 50% | 1018.1 hPa | 0 mm | - | 98 W/m² | - |
| 1788296059 | 35.56° C | 49% | 1018.1 hPa | 0 mm | - | 90 W/m² | - |
| 1788295754 | 35° C | 48% | 1018.1 hPa | 0 mm | - | 98 W/m² | - |
| 1788295451 | 35° C | 56% | 1018.2 hPa | 0 mm | - | 130 W/m² | - |
| 1788295150 | 35.56° C | 50% | 1018.2 hPa | 0 mm | - | 103 W/m² | - |
| 1788294850 | 35.56° C | 49% | 1018.2 hPa | 0 mm | - | 115 W/m² | - |
| 1788294546 | 35° C | 49% | 1018.2 hPa | 0 mm | - | 106 W/m² | - |
| 1788294241 | 35° C | 49% | 1018.4 hPa | 0 mm | - | 93 W/m² | - |
| 1788293937 | 35° C | 49% | 1018.3 hPa | 0 mm | - | 154 W/m² | - |
| 1788293636 | 35° C | 48% | 1018.5 hPa | 0 mm | - | 141 W/m² | - |
| 1788293335 | 35° C | 50% | 1018.5 hPa | 0 mm | - | 272 W/m² | - |
| 1788293032 | 34.44° C | 50% | 1018.5 hPa | 0 mm | - | 483 W/m² | - |
| 1788292730 | 35° C | 49% | 1018.6 hPa | 0 mm | - | 78 W/m² | - |
| 1788292428 | 35° C | 51% | 1018.6 hPa | 0 mm | - | 91 W/m² | - |
| 1788292125 | 35° C | 52% | 1018.6 hPa | 0 mm | - | 116 W/m² | - |
| 1788291824 | 35° C | 49% | 1018.7 hPa | 0 mm | - | 163 W/m² | - |
| 1788291540 | 34.44° C | 57% | 1018.7 hPa | 0 mm | - | 168 W/m² | - |
| 1788291219 | 35° C | 51% | 1018.9 hPa | 0 mm | - | 96 W/m² | - |
* Rain latest hour (hover to see other rain measurements)
** Current wind speed in m/s (hover to see current wind gust speed)